N7HRX Weather Reports


time (UTC)temp
F
wind
direction
speed
knots
gust
knots
rain 1hr
in
rain 24hr
in
rain mn
in
humidity
%
barometer
mb
20210518213332 78 337 5.2 12.2 0.00 0.00 0.00 29 1010.9
20210518212327 78 11 5.2 12.2 0.00 0.00 0.00 28 1010.9
20210518211341 78 315 5.2 11.3 0.00 0.00 0.00 29 1010.9
20210518210403 79 355 6.1 12.2 0.00 0.00 0.00 29 1010.9
20210518205335 79 261 6.1 12.2 0.00 0.00 0.00 28 1011.2
20210518204330 78 360 6.1 11.3 0.00 0.00 0.00 29 1011.4
20210518203341 79 350 4.3 14.8 0.00 0.00 0.00 31 1011.6
20210518202331 79 322 4.3 11.3 0.00 0.00 0.00 30 1011.6
20210518201341 79 263 4.3 8.7 0.00 0.00 0.00 34 1011.9
20210518200403 79 336 6.1 11.3 0.00 0.00 0.00 32 1011.9
20210518195335 79 325 7.0 13.0 0.00 0.00 0.00 32 1011.8
20210518194328 79 296 8.7 12.2 0.00 0.00 0.00 31 1012.0
20210518193340 78 321 4.3 13.9 0.00 0.00 0.00 32 1012.2
20210518192332 78 320 9.6 13.9 0.00 0.00 0.00 32 1012.0
20210518191345 78 28 5.2 13.0 0.00 0.00 0.00 32 1012.2
20210518190347 78 344 7.0 14.8 0.00 0.00 0.00 34 1012.3
20210518185345 78 321 7.8 14.8 0.00 0.00 0.00 32 1012.4
20210518184338 78 309 5.2 9.6 0.00 0.00 0.00 33 1012.6
20210518183330 77 12 6.1 12.2 0.00 0.00 0.00 33 1012.7
20210518182345 77 5 3.5 10.4 0.00 0.00 0.00 31 1012.7
20210518181337 77 11 6.1 11.3 0.00 0.00 0.00 35 1013.0
20210518180403 77 355 7.0 11.3 0.00 0.00 0.00 34 1013.1
20210518175337 76 273 3.5 8.7 0.00 0.00 0.00 38 1013.2
20210518174347 73 234 1.7 4.3 0.00 0.00 0.00 43 1013.3
20210518173340 73 252 2.6 5.2 0.00 0.00 0.00 43 1013.3
20210518172331 72 198 0.9 5.2 0.00 0.00 0.00 43 1013.4
20210518171346 70 177 1.7 5.2 0.00 0.00 0.00 42 1013.4
20210518170346 70 222 2.6 4.3 0.00 0.00 0.00 43 1013.6
20210518165342 68 212 1.7 5.2 0.00 0.00 0.00 45 1013.7
20210518164337 69 360 1.7 4.3 0.00 0.00 0.00 43 1013.7
20210518163330 68 194 2.6 5.2 0.00 0.00 0.00 45 1013.6
20210518162338 68 203 2.6 4.3 0.00 0.00 0.00 46 1013.8
20210518161333 67 203 1.7 3.5 0.00 0.00 0.00 53 1013.9
20210518160355 66 203 0.9 3.5 0.00 0.00 0.00 48 1013.9
20210518155332 66 203 2.6 5.2 0.00 0.00 0.00 49 1013.9
20210518154343 65 171 0.0 5.2 0.00 0.00 0.00 49 1014.0
20210518153332 64 120 1.7 2.6 0.00 0.00 0.00 51 1013.9
20210518152328 64 196 2.6 3.5 0.00 0.00 0.00 51 1014.0
20210518151339 62 52 0.9 2.6 0.00 0.00 0.00 56 1014.0
20210518150343 62 52 0.9 2.6 0.00 0.00 0.00 55 1013.9
20210518145341 60 52 0.9 1.7 0.00 0.00 0.00 57 1013.9
20210518144332 59 52 0.9 1.7 0.00 0.00 0.00 62 1014.0
20210518143328 57 52 0.0 0.9 0.00 0.00 0.00 68 1014.0
20210518142338 56 52 0.0 0.9 0.00 0.00 0.00 69 1014.0
20210518141334 55 52 0.0 0.0 0.00 0.00 0.00 74 1014.1
20210518140353 54 52 0.0 1.7 0.00 0.00 0.00 73 1014.0
20210518135330 53 52 1.7 3.5 0.00 0.00 0.00 77 1013.9
20210518134325 50 52 1.7 3.5 0.00 0.00 0.00 84 1013.9
20210518133343 47 52 1.7 3.5 0.00 0.00 0.00 87 1013.9
20210518132336 46 52 0.0 0.9 0.00 0.00 0.00 87 1013.8
20210518131332 46 52 0.9 3.5 0.00 0.00 0.00 85 1013.9
20210518130358 45 52 2.6 3.5 0.00 0.00 0.00 86 1013.9
20210518125330 45 52 1.7 2.6 0.00 0.00 0.00 86 1013.7
20210518124339 45 52 1.7 2.6 0.00 0.00 0.00 86 1013.8
20210518123334 45 52 1.7 3.5 0.00 0.00 0.00 85 1013.7
20210518122325 45 52 2.6 3.5 0.00 0.00 0.00 85 1013.4
20210518121341 45 52 1.7 2.6 0.00 0.00 0.00 85 1013.4
20210518120343 46 52 1.7 2.6 0.00 0.00 0.00 84 1013.3
20210518115340 45 52 1.7 2.6 0.00 0.00 0.00 84 1013.3
20210518114338 46 52 1.7 2.6 0.00 0.00 0.00 84 1013.3
20210518113327 46 52 2.6 3.5 0.00 0.00 0.00 84 1013.3
20210518112338 46 52 1.7 3.5 0.00 0.00 0.00 83 1013.4
20210518111332 46 52 1.7 3.5 0.00 0.00 0.00 83 1013.2
20210518110341 46 52 0.9 3.5 0.00 0.00 0.00 83 1013.3
20210518105338 47 52 0.9 2.6 0.00 0.00 0.00 83 1013.1
20210518104333 46 52 2.6 3.5 0.00 0.00 0.00 83 1013.1
20210518103327 47 52 1.7 4.3 0.00 0.00 0.00 83 1013.1
20210518102341 46 52 2.6 4.3 0.00 0.00 0.00 83 1013.0
20210518101340 46 52 1.7 2.6 0.00 0.00 0.00 82 1013.1
20210518100403 47 52 0.9 2.6 0.00 0.00 0.00 80 1013.1
20210518095336 48 52 2.6 4.3 0.00 0.00 0.00 80 1013.1
20210518094347 48 52 1.7 4.3 0.00 0.00 0.00 80 1012.9
20210518093337 48 13 0.9 2.6 0.00 0.00 0.00 79 1012.9
20210518092336 48 13 1.7 2.6 0.00 0.00 0.00 80 1012.7
20210518091347 48 13 0.9 4.3 0.00 0.00 0.00 79 1012.6
20210518090348 48 13 2.6 3.5 0.00 0.00 0.00 79 1012.7
20210518085341 48 13 2.6 3.5 0.00 0.00 0.00 78 1012.8
20210518084334 48 13 1.7 2.6 0.00 0.00 0.00 79 1012.9
20210518083332 48 13 0.9 4.3 0.00 0.00 0.00 78 1012.9
20210518082325 49 46 2.6 3.5 0.00 0.00 0.00 78 1012.8
20210518081340 49 46 1.7 2.6 0.00 0.00 0.00 76 1012.8
20210518080347 49 46 2.6 3.5 0.00 0.00 0.00 76 1012.8
20210518075341 50 46 1.7 2.6 0.00 0.00 0.00 76 1012.9
20210518074337 50 46 1.7 2.6 0.00 0.00 0.00 75 1013.0
20210518073326 50 46 1.7 2.6 0.00 0.00 0.00 75 1013.1
20210518072340 50 46 1.7 4.3 0.00 0.00 0.00 74 1012.8
20210518071335 51 51 3.5 5.2 0.00 0.00 0.00 72 1012.7
20210518070357 51 46 3.5 4.3 0.00 0.00 0.00 73 1012.7
20210518065338 51 49 1.7 4.3 0.00 0.00 0.00 72 1012.7
20210518064331 51 49 2.6 4.3 0.00 0.00 0.00 70 1012.6
20210518063345 52 49 3.5 6.1 0.00 0.00 0.00 68 1012.7
20210518062336 52 59 2.6 5.2 0.00 0.00 0.00 70 1012.8
20210518061346 51 59 2.6 6.1 0.00 0.00 0.00 73 1012.9
20210518060352 51 53 2.6 2.6 0.00 0.00 0.00 75 1012.9
20210518055345 51 53 1.7 3.5 0.00 0.00 0.00 74 1013.0
20210518054336 51 53 3.5 4.3 0.00 0.00 0.00 74 1013.0
20210518053330 51 53 3.5 4.3 0.00 0.00 0.00 73 1013.1
20210518052340 51 84 1.7 2.6 0.00 0.00 0.00 74 1013.1
20210518051334 52 84 0.9 1.7 0.00 0.00 0.00 73 1013.0
20210518050401 52 84 2.6 2.6 0.00 0.00 0.00 70 1012.9
20210518045334 52 105 1.7 4.3 0.00 0.00 0.00 71 1013.1
20210518044327 52 257 1.7 3.5 0.00 0.00 0.00 71 1013.0
20210518043342 52 257 0.9 4.3 0.00 0.00 0.00 70 1013.0
20210518042333 54 257 2.6 3.5 0.00 0.00 0.00 68 1013.0
20210518041330 53 257 0.9 1.7 0.00 0.00 0.00 69 1013.2
20210518040355 54 257 0.0 3.5 0.00 0.00 0.00 68 1013.1
20210518035332 54 257 1.7 2.6 0.00 0.00 0.00 67 1012.8
20210518034340 55 257 1.7 2.6 0.00 0.00 0.00 66 1012.6
20210518033331 55 257 0.0 3.5 0.00 0.00 0.00 66 1012.4
20210518032343 56 257 2.6 3.5 0.00 0.00 0.00 64 1012.4
20210518031333 58 257 0.0 2.6 0.00 0.00 0.00 57 1012.2
20210518030356 59 257 0.0 1.7 0.00 0.00 0.00 54 1012.2
20210518025330 60 257 0.9 3.5 0.00 0.00 0.00 54 1012.1
20210518024342 62 255 2.6 5.2 0.00 0.00 0.00 47 1011.9
20210518023337 63 263 1.7 6.1 0.00 0.00 0.00 46 1011.7
20210518022326 63 246 2.6 4.3 0.00 0.00 0.00 45 1011.7
20210518021340 64 229 2.6 7.8 0.00 0.00 0.00 47 1011.3
20210518020401 64 227 3.5 5.2 0.00 0.00 0.00 44 1011.3
20210518015325 66 15 2.6 5.2 0.00 0.00 0.00 40 1011.3
20210518014338 67 332 3.5 5.2 0.00 0.00 0.00 38 1010.9
20210518013334 68 351 3.5 6.1 0.00 0.00 0.00 37 1011.1
20210518012345 68 331 5.2 7.8 0.00 0.00 0.00 38 1011.1
20210518011335 69 313 2.6 7.8 0.00 0.00 0.00 37 1011.1
20210518010400 69 234 3.5 5.2 0.00 0.00 0.00 37 1011.0
20210518005332 69 13 2.6 5.2 0.00 0.00 0.00 35 1011.1
20210518004346 69 24 4.3 7.0 0.00 0.00 0.00 36 1011.1
20210518003336 70 81 4.3 7.0 0.00 0.00 0.00 36 1010.9
20210518002345 69 194 3.5 4.3 0.00 0.00 0.00 36 1010.7
20210518001334 70 273 2.6 7.8 0.00 0.00 0.00 35 1010.7
20210518000355 70 27 1.7 6.1 0.00 0.00 0.00 34 1010.9
20210517235325 71 109 4.3 6.1 0.00 0.00 0.00 35 1010.8
20210517234340 71 60 1.7 3.5 0.00 0.00 0.00 29 1010.7
20210517233331 71 34 3.5 7.8 0.00 0.00 0.00 32 1010.6
20210517232341 72 38 5.2 7.8 0.00 0.00 0.00 33 1010.8
20210517231332 71 348 5.2 10.4 0.00 0.00 0.00 33 1010.9
20210517230354 70 355 3.5 8.7 0.00 0.00 0.00 40 1010.9
20210517225333 70 37 4.3 9.6 0.00 0.00 0.00 37 1011.3
20210517224327 69 111 4.3 7.8 0.00 0.00 0.00 38 1011.4
20210517223337 67 62 4.3 12.2 0.00 0.00 0.00 40 1011.6
20210517222346 66 103 6.1 13.9 0.00 0.00 0.00 42 1012.1
20210517221336 66 98 7.8 13.9 0.00 0.00 0.00 40 1012.1
20210517220345 66 44 7.8 11.3 0.00 0.00 0.00 40 1012.1
20210517215340 66 44 8.7 13.0 0.00 0.00 0.00 41 1012.2
20210517214327 66 63 8.7 14.8 0.00 0.00 0.00 41 1012.4